OPS 4682 DEB, 38364

Orbit data source: Space-Track

OPS 4682 DEB, 38364 is space debris in LEO originally from a launch on Sat, 03 Apr 1965 UTC launched from the Air Force Western Test Range (AFWTR). Debris objects in space refer to the collection of defunct objects orbiting the Earth. Examples of debris include non-operational satellites, rocket bodies, and fragments generated from explosions, collisions, or faulty payload assembly.

Loading next visibility...
Identifier
38364, 1965-027BR
Orbit
LEO
Country
Flag of USUS
Related business
Manufacturer
Unknown
Mission
Spacecraft
Bus & Motor
Unknown
Mass
Unknown
Launch date (UTC)
1965-04-03 (61 years ago)
Launch vehicle
Unknown
Launch site
Air Force Western Test Range (AFWTR)
Object type
Payload
Rocket body
Debris
Shape & HBR
Unknown shape, 0.1 m
Radar Cross Section
Small (<0.1 m²)

Expand to show TLE details & history
Last TLE update: 1 day ago

TLE from 1 day ago
0 OPS 4682 DEB
1 38364U 65027BR  26125.11983448  .00000382  00000-0  13077-2 0  9991
2 38364  90.2516  10.8779 0031955 229.3983 130.4356 12.96450331656991
Epoch: 2026-05-05T02:52Z
TLE epoch observation values (Epoch: 2026-05-05T02:52:33.699Z)
Latitude
-0°
Longitude
104.73824°
Altitude
1,294.817 km
Speed
7.201 km/s
True Right ascension
00h 43m 30s
True Declination
0° 00' 00"
Sunlit
Object was in daylight at epoch
Visualization orbit readout
Latitude
Unknown
Longitude
Unknown
Altitude
Unknown
Speed
Unknown
Apparent Right ascension
Unknown
Apparent Declination
Unknown
Sunlit
N/A
Visualization observer readout
Local Sidereal Time
12:33:58
Azimuth
Unknown
Elevation
Unknown
Doppler factor
Unknown
Orbital elements
Apogee altitude
1,297.608 km
Perigee altitude
1,248.709 km
Semi-major axis
7,651.295 km
Eccentricity
0.0032
Inclination
90.2516°
RAAN
10.8779°
Arg. of periapsis
229.3983°
True anomaly
130.71359°
Mean anomaly
130.4356°
Eccentric anomaly
130.57467°
Mean motion
3.24295 °/min
Orbital period
111.01 mins
BSTAR
0.0013077
Loading maneuver chart data...
Computing Atmospheric mass density...
Loading historical data...
Loading historical data...
Loading historical data...
Loading historical data...
Loading historical data...
Loading historical data...
Loading historical data...

Documentation

Showing up to 5 results
|